Starlink 35156

operational
NORAD ID: 65607 Int'l Des: 2025-207 Owner: SPXS Country: US Constellation: starlink
NOTLE

Starlink 35156について

説明を読み込み中...

リアルタイム位置

3D地球を読み込み中...

次回通過

高度履歴

Altitude vs Time

uPlot chart will show altitude changes over time

軌道要素

1 65607U 25207R 25354.58336806 -.01617175 00000-0 -70628-1 0 9992
2 65607 97.6030 60.6481 0001840 81.2185 354.0453 15.25355777 5684
Epoch: Dec 20, 2025 • Age: 5 hours

現在のステータス

高度 518.6 km
速度 7.60 km/s
衛星直下点 -67.06°S, 159.26°W
打ち上げ日 Sep 13, 2025
運用期間 0.2 years
タイプ internet

技術仕様

分類 Payload
質量 575.00 kg
乾燥質量 530.00 kg
総質量 575.00 kg
長さ 0.30 m
直径 4.10 m
スパン 29.00 m
形状 Box + pan
製造者 SPXS
バスタイプ Starlink V2MO
フェーズステータス In Orbit
所有者/国 SPXS/US

大規模コンステレーション

Loading constellations...